Вернуться в каталог

STARLINK-33965

АктивенСвязьVLEO
NORAD 64755·PAYLOAD·🇺🇸 United States

Запущен Jul 8, 2025 с Cape Canaveral Space Force Station

Loading…

Ближайшие Пролёты (ближайшие 24 часа)

TLE

СвежийSource: CelesTrak SupGP

Эпоха: Sep 15, 2026, 02:57 UTC

1 64755C 25147A   26258.12340278 -.00023989  00000+0 -70880-3 0  2582
2 64755  53.1576  78.6665 0001122  84.9633 287.0286 15.34400979    19

Отслеживайте STARLINK-33965 в реальном времени с AllMySat

Download on the App Store